Overview Statistics Trail Chart Weather Telemetry Raw packets
 

This is the latest recevied weather packets stored in our database for station/object KA1AL. If no packets are shown the sender has not sent any weather packets the latest 10 day(s).

<< 53 54 55 56 57 58 59 >>
Time Temp. Humidity Pressure Rain* Wind** Luminosity Snow
1777162525 9.44° C 61% 1016 hPa 0 mm - 0 W/m² -
1777162220 9.44° C 62% 1016.1 hPa 0 mm - 0 W/m² -
1777161914 9.44° C 62% 1016.3 hPa 0 mm - 0 W/m² -
1777161610 10° C 61% 1016 hPa 0 mm - 0 W/m² -
1777161308 10° C 61% 1015.8 hPa 0 mm - 0 W/m² -
1777161003 10° C 62% 1015.8 hPa 0 mm - 0 W/m² -
1777160699 10° C 61% 1015.9 hPa 0 mm - 0 W/m² -
1777160394 10° C 60% 1015.8 hPa 0 mm - 1 W/m² -
1777160091 10° C 60% 1015.7 hPa 0 mm - 3 W/m² -
1777159786 10.56° C 58% 1015.5 hPa 0 mm - 6 W/m² -
1777159483 10.56° C 58% 1015.7 hPa 0 mm - 8 W/m² -
1777159179 10.56° C 58% 1015.3 hPa 0 mm - 11 W/m² -
1777158876 10.56° C 59% 1015.3 hPa 0 mm - 15 W/m² -
1777158574 10.56° C 59% 1015.2 hPa 0 mm - 19 W/m² -
1777158270 11.11° C 58% 1015.1 hPa 0 mm - 21 W/m² -
1777157966 11.11° C 58% 1015.1 hPa 0 mm - 24 W/m² -
1777157662 11.11° C 58% 1015.2 hPa 0 mm - 26 W/m² -
1777157359 11.11° C 56% 1015.1 hPa 0 mm - 30 W/m² -
1777157059 11.11° C 57% 1014.9 hPa 0 mm - 33 W/m² -
1777156754 11.67° C 55% 1015.2 hPa 0 mm - 36 W/m² -
1777156450 11.11° C 57% 1015 hPa 0 mm - 38 W/m² -
1777156147 11.67° C 56% 1015.1 hPa 0 mm - 53 W/m² -
1777155843 11.67° C 54% 1015.1 hPa 0 mm - 60 W/m² -
1777155537 11.67° C 55% 1014.9 hPa 0 mm - 62 W/m² -
1777155235 11.67° C 54% 1015.2 hPa 0 mm - 87 W/m² -

* Rain latest hour (hover to see other rain measurements)
** Current wind speed in m/s (hover to see current wind gust speed)